Regional Weather Roundup
Issued by NWS

Home | Current Version | Previous Version | Graphics & Text | Print | Product List | Glossary On
Versions: 1 2 3 4 5 6 7 8 9 10 11 12 13 14 15 16 17 18 19 20 21 22 23 24 25 26 27 28 29 30 31 32 33 34 35 36 37 38 39 40 41 42 43 44 45 46 47 48 49 50
835
ASUS43 KLMK 271102
RWRKY
KENTUCKY REGIONAL WEATHER ROUNDUP
NATIONAL WEATHER SERVICE LOUISVILLE KY
600 AM EST MON FEB 27 2017

NOTE "FAIR" INDICATES FEW OR NO CLOUDS BELOW 12,000 FEET
WITH NO SIGNIFICANT WEATHER AND/OR OBSTRUCTIONS TO VISIBILITY.

KYZ001>023-026-027-061>063-070>075-271200-
WESTERN AND SOUTH CENTRAL KENTUCKY

CITY           SKY/WX    TMP DP  RH WIND       PRES   REMARKS
PADUCAH        CLOUDY    45  41  86 E5        30.11S
HENDERSON      CLOUDY    45  37  76 E6        30.16F
OWENSBORO      LGT RAIN  44  41  89 E8        30.19R
HOPKINSVILLE   LGT RAIN  46  44  96 SE7       30.16S
BOWLING GREEN  LGT RAIN  45  42  89 SE5       30.21F
GLASGOW        NOT AVBL
$$

KYZ024-025-028>034-038-045-046-053-271200-
NORTH CENTRAL KENTUCKY

CITY           SKY/WX    TMP DP  RH WIND       PRES   REMARKS
LOUISVILLE/SDF LGT RAIN  46  37  71 S7        30.23R
LOUISVILLE/LOU LGT RAIN  46  38  73 S3        30.24R
FORT KNOX      LGT RAIN  43  39  87 S3        30.21R
$$

KYZ035>037-039>044-047>052-055>060-089>105-271200-
NORTHEAST KENTUCKY

CITY           SKY/WX    TMP DP  RH WIND       PRES   REMARKS
LEXINGTON      LGT RAIN  43  37  79 S3        30.26R
COVINGTON      LGT RAIN  44  30  57 S7        30.22R
FRANKFORT      LGT RAIN  43  38  82 SE5       30.24R
$$

KYZ054-064>069-076>088-106>120-271200-
SOUTHEAST KENTUCKY

CITY           SKY/WX    TMP DP  RH WIND       PRES   REMARKS
JACKSON        CLOUDY    40  21  46 CALM      30.25F
LONDON         CLOUDY    44  30  57 CALM      30.26R
SOMERSET       CLOUDY    41  32  70 CALM      30.28R
MIDDLESBORO    CLOUDY    34  31  86 CALM      30.29R
MONTICELLO     CLOUDY    42  36  79 VRB5      30.28R
$$





USA.gov is the U.S. government's official web portal to all federal, state and local government web resources and services.